When you browse on this site, cookies collect data to enhance your experience and personalize the content and advertising you see.
Visit our Privacy Policy to learn more. By continuing to use the site, you agree to this use of cookies and data.
  • In Portugal
  • List of Countries
  • For 7 days
  • Water Temperature
  • Satellite Maps
  • Weather Map
  • Weather Widgets
  • user-avatar
    Login

    Hourly Weather Khmil'nyk

    Today, 21 April, Sunday

    Time Temperature Precipitation Wind Pressure Humidity
    00:00 +7°C° 1 mm 3 mps 742 mmHg 81%
    01:00 +6°C° 1 mm 4 mps 741 mmHg 84%
    02:00 +6°C° 1 mm 4 mps 741 mmHg 87%
    03:00 +5°C° 0.2 mm 4 mps 741 mmHg 86%
    04:00 +5°C° 0.2 mm 4 mps 741 mmHg 86%
    05:00 +5°C° 0.2 mm 4 mps 740 mmHg 86%
    06:00 +6°C° 0 mm 4 mps 740 mmHg 83%
    07:00 +7°C° 0 mm 5 mps 740 mmHg 79%
    08:00 +8°C° 0 mm 5 mps 740 mmHg 76%
    09:00 +9°C° 0 mm 5 mps 740 mmHg 72%
    10:00 +10°C° 0 mm 6 mps 740 mmHg 67%
    11:00 +11°C° 0 mm 6 mps 740 mmHg 63%
    12:00 +11°C° 0.1 mm 6 mps 740 mmHg 61%
    13:00 +13°C° 0.1 mm 6 mps 740 mmHg 59%
    14:00 +13°C° 0.1 mm 6 mps 740 mmHg 57%
    15:00 +13°C° 0.2 mm 6 mps 740 mmHg 59%
    16:00 +13°C° 0.2 mm 6 mps 739 mmHg 60%
    17:00 +11°C° 0.2 mm 6 mps 739 mmHg 61%
    18:00 +10°C° 0 mm 6 mps 739 mmHg 62%
    19:00 +9°C° 0 mm 5 mps 739 mmHg 64%
    20:00 +8°C° 0 mm 5 mps 739 mmHg 65%
    21:00 +8°C° 0.1 mm 5 mps 740 mmHg 65%
    22:00 +8°C° 0.1 mm 5 mps 740 mmHg 65%
    23:00 +8°C° 0.1 mm 5 mps 740 mmHg 65%

    Tomorrow, 22 April, Monday

    Time Temperature Precipitation Wind Pressure Humidity
    00:00 +7°C° 0.1 mm 5 mps 740 mmHg 67%
    01:00 +7°C° 0.1 mm 5 mps 740 mmHg 69%
    02:00 +6°C° 0.1 mm 5 mps 741 mmHg 71%
    03:00 +6°C° 0 mm 4 mps 741 mmHg 71%
    04:00 +5°C° 0 mm 4 mps 741 mmHg 72%
    05:00 +4°C° 0 mm 3 mps 741 mmHg 73%
    06:00 +6°C° 0 mm 4 mps 742 mmHg 68%
    07:00 +7°C° 0 mm 5 mps 742 mmHg 62%
    08:00 +8°C° 0 mm 5 mps 743 mmHg 57%
    09:00 +9°C° 0 mm 6 mps 743 mmHg 53%
    10:00 +10°C° 0 mm 6 mps 743 mmHg 48%
    11:00 +11°C° 0 mm 7 mps 744 mmHg 44%
    12:00 +13°C° 0 mm 6 mps 744 mmHg 44%
    13:00 +13°C° 0 mm 6 mps 744 mmHg 44%
    14:00 +13°C° 0 mm 6 mps 744 mmHg 44%
    15:00 +13°C° 0 mm 6 mps 744 mmHg 46%
    16:00 +12°C° 0 mm 5 mps 744 mmHg 48%
    17:00 +12°C° 0 mm 5 mps 744 mmHg 50%
    18:00 +11°C° 0 mm 4 mps 744 mmHg 52%
    19:00 +10°C° 0 mm 4 mps 744 mmHg 55%
    20:00 +10°C° 0 mm 4 mps 744 mmHg 57%
    21:00 +8°C° 0 mm 4 mps 744 mmHg 60%
    22:00 +7°C° 0 mm 4 mps 745 mmHg 63%
    23:00 +6°C° 0 mm 4 mps 745 mmHg 65%

    Day after tomorrow, 23 April, Tuesday

    Time Temperature Precipitation Wind Pressure Humidity
    00:00 +6°C° 0 mm 4 mps 745 mmHg 65%
    01:00 +6°C° 0 mm 4 mps 745 mmHg 64%
    02:00 +6°C° 0 mm 4 mps 745 mmHg 64%
    03:00 +6°C° 0 mm 4 mps 745 mmHg 66%
    04:00 +5°C° 0 mm 4 mps 745 mmHg 69%
    05:00 +4°C° 0 mm 4 mps 745 mmHg 72%
    06:00 +6°C° 0 mm 4 mps 745 mmHg 67%
    07:00 +7°C° 0 mm 5 mps 746 mmHg 62%
    08:00 +9°C° 0 mm 6 mps 746 mmHg 57%
    09:00 +10°C° 0 mm 6 mps 746 mmHg 53%
    10:00 +12°C° 0 mm 7 mps 746 mmHg 48%
    11:00 +14°C° 0 mm 7 mps 746 mmHg 44%
    12:00 +14°C° 0 mm 7 mps 746 mmHg 44%
    13:00 +15°C° 0 mm 7 mps 745 mmHg 43%
    14:00 +15°C° 0 mm 7 mps 745 mmHg 43%
    15:00 +15°C° 0 mm 7 mps 745 mmHg 45%
    16:00 +15°C° 0 mm 6 mps 745 mmHg 46%
    17:00 +14°C° 0 mm 6 mps 744 mmHg 48%
    18:00 +13°C° 0 mm 6 mps 744 mmHg 52%
    19:00 +12°C° 0 mm 5 mps 744 mmHg 56%
    20:00 +11°C° 0 mm 4 mps 744 mmHg 60%
    21:00 +10°C° 0 mm 4 mps 745 mmHg 63%
    22:00 +8°C° 0 mm 4 mps 745 mmHg 66%
    23:00 +7°C° 0 mm 4 mps 745 mmHg 69%

    24 April, Wednesday

    Time Temperature Precipitation Wind Pressure Humidity
    00:00 +7°C° 0 mm 4 mps 745 mmHg 69%
    01:00 +6°C° 0 mm 4 mps 745 mmHg 69%
    02:00 +6°C° 0 mm 4 mps 745 mmHg 69%
    03:00 +5°C° 0 mm 4 mps 745 mmHg 69%
    04:00 +5°C° 0 mm 4 mps 745 mmHg 69%
    05:00 +5°C° 0 mm 5 mps 745 mmHg 69%
    06:00 +5°C° 0 mm 6 mps 745 mmHg 63%
    07:00 +8°C° 0 mm 7 mps 745 mmHg 57%
    08:00 +10°C° 0 mm 8 mps 746 mmHg 51%
    09:00 +11°C° 0 mm 8 mps 746 mmHg 48%
    10:00 +12°C° 0 mm 8 mps 746 mmHg 45%
    11:00 +13°C° 0 mm 8 mps 746 mmHg 43%
    12:00 +15°C° 0 mm 8 mps 745 mmHg 42%
    13:00 +15°C° 0 mm 8 mps 745 mmHg 41%
    14:00 +16°C° 0 mm 8 mps 745 mmHg 41%
    15:00 +16°C° 0 mm 7 mps 745 mmHg 43%
    16:00 +16°C° 0 mm 7 mps 744 mmHg 45%
    17:00 +15°C° 0 mm 6 mps 744 mmHg 47%
    18:00 +14°C° 0 mm 6 mps 744 mmHg 52%
    19:00 +13°C° 0 mm 5 mps 744 mmHg 57%
    20:00 +11°C° 0 mm 4 mps 744 mmHg 61%
    21:00 +10°C° 0 mm 5 mps 744 mmHg 62%
    22:00 +9°C° 0 mm 5 mps 744 mmHg 63%
    23:00 +9°C° 0 mm 5 mps 744 mmHg 64%

    25 April, Thursday

    Time Temperature Precipitation Wind Pressure Humidity
    00:00 +8°C° 0 mm 5 mps 744 mmHg 66%
    01:00 +8°C° 0 mm 5 mps 744 mmHg 68%
    02:00 +8°C° 0 mm 5 mps 744 mmHg 70%
    03:00 +7°C° 0 mm 5 mps 744 mmHg 71%
    04:00 +7°C° 0 mm 5 mps 744 mmHg 72%
    05:00 +6°C° 0 mm 5 mps 744 mmHg 73%
    06:00 +8°C° 0 mm 6 mps 744 mmHg 69%
    07:00 +9°C° 0 mm 6 mps 744 mmHg 64%
    08:00 +10°C° 0 mm 7 mps 744 mmHg 60%
    09:00 +12°C° 0 mm 7 mps 744 mmHg 57%
    10:00 +14°C° 0 mm 7 mps 744 mmHg 54%
    11:00 +16°C° 0 mm 8 mps 744 mmHg 51%
    12:00 +17°C° 0 mm 8 mps 744 mmHg 50%
    13:00 +17°C° 0 mm 8 mps 743 mmHg 49%
    14:00 +18°C° 0 mm 8 mps 743 mmHg 49%
    15:00 +18°C° 0 mm 7 mps 743 mmHg 51%
    16:00 +18°C° 0 mm 7 mps 742 mmHg 52%
    17:00 +18°C° 0 mm 7 mps 742 mmHg 54%
    18:00 +16°C° 0 mm 6 mps 742 mmHg 58%
    19:00 +15°C° 0 mm 6 mps 741 mmHg 61%
    20:00 +14°C° 0 mm 5 mps 741 mmHg 64%
    21:00 +13°C° 0 mm 6 mps 741 mmHg 63%
    22:00 +13°C° 0 mm 6 mps 741 mmHg 62%
    23:00 +13°C° 0 mm 6 mps 741 mmHg 61%

    26 April, Friday

    Time Temperature Precipitation Wind Pressure Humidity
    00:00 +11°C° 0.3 mm 6 mps 741 mmHg 64%
    01:00 +11°C° 0.3 mm 6 mps 740 mmHg 67%
    02:00 +10°C° 0.3 mm 5 mps 740 mmHg 70%
    03:00 +9°C° 0.1 mm 5 mps 740 mmHg 71%
    04:00 +8°C° 0.1 mm 5 mps 740 mmHg 72%
    05:00 +8°C° 0.1 mm 5 mps 739 mmHg 72%
    06:00 +9°C° 0 mm 6 mps 739 mmHg 70%
    07:00 +10°C° 0 mm 6 mps 739 mmHg 68%
    08:00 +11°C° 0 mm 6 mps 739 mmHg 65%
    09:00 +14°C° 0 mm 7 mps 739 mmHg 62%
    10:00 +16°C° 0 mm 7 mps 739 mmHg 59%
    11:00 +18°C° 0 mm 7 mps 738 mmHg 56%
    12:00 +20°C° 0 mm 7 mps 738 mmHg 54%
    13:00 +21°C° 0 mm 7 mps 738 mmHg 52%
    14:00 +22°C° 0 mm 7 mps 737 mmHg 50%
    15:00 +21°C° 0 mm 7 mps 737 mmHg 51%
    16:00 +21°C° 0 mm 6 mps 736 mmHg 53%
    17:00 +20°C° 0 mm 6 mps 736 mmHg 55%
    18:00 +19°C° 0 mm 6 mps 736 mmHg 58%
    19:00 +16°C° 0 mm 5 mps 736 mmHg 60%
    20:00 +15°C° 0 mm 5 mps 736 mmHg 63%
    21:00 +15°C° 0 mm 5 mps 736 mmHg 63%
    22:00 +15°C° 0 mm 6 mps 736 mmHg 62%
    23:00 +15°C° 0 mm 6 mps 736 mmHg 61%
    Show more